SCP
0 0 1 0 0 0 0 0 0 0 0 0 0 0 0 0 0 0 0 0 0 0
0 0 0 0 0 0 0 0 0 0 0 0 0 0 0 0 0 0 0 0 0 0
0 0 0 0 0 0 0 0 0 0 0 0 0 0 0 0 0 0 0 0 0 0
0 0 0 0 0 0 0 0 0 0 0 0 0 0 0 0 0 0 0 0 0 0
0 0 0 0 0 0 0 0 0 0 0 0 0 0 0 0 0 0 0 0 0 0
0 0 0 0 0 0 0 0 0 0 0 0 0 0 0 0 0 0 0 0 0 0
0 0 0 0 0 0 0 0 0 0 0 0 0 0 0 0 0 0 0 0 0 0
0 0 0 0 0 0 0 0 0 0 0 0 0 0 0 0 0 0 0 0 0 0
0 0 0 0 0 0 0 0 0 0 0 0 0 0 0 0 0 0 0 0 0 0
0 0 0 0 0 0 0 0 0 0 0 0 0 0 0 0 0 0 0 0 0 0
0 0 0 0 0 0 0 0 0 0 0 0 0 0 0 0 0 0 0 0 0 0
0 0 0 0 0 0 0 0 0 0 0 0 0 0 0 0 0 0 0 0 0 0
0 0 0 0 0 0 0 0 0 0 0 0 0 0 0 0 0 0 0 0 0 0
0 0 0 0 0 0 0 0 0 0 0 0 0 0 0 0 0 0 0 0 0 0
Wind_Speed_500mb
38 36 32 27 24 17 16 18 19 21 25 28 29 31 34 40 41 43 41 36 38 42
34 27 23 19 19 20 22 22 24 26 28 30 31 36 40 42 40 40 41 43 44 42
17 16 18 21 22 22 21 26 30 32 32 34 36 37 37 34 31 31 35 40 43 46
16 20 22 20 21 23 29 36 37 37 36 36 39 38 38 38 38 38 40 40 42 46
18 17 19 22 28 33 36 39 39 40 44 45 47 48 48 45 46 48 48 47 46 49
19 24 28 31 35 39 42 46 48 51 54 56 58 59 59 58 57 57 57 51 49 50
31 37 42 45 48 50 51 55 58 60 63 68 71 72 72 72 70 66 68 65 61 55
31 39 45 51 53 57 61 65 68 71 75 77 79 74 73 80 80 77 77 67 64 58
39 44 49 55 60 66 70 75 77 80 84 89 93 84 89 87 86 78 76 73 69 70
56 61 67 73 77 80 84 87 90 92 92 94 93 92 92 94 96 92 85 84 77 71
69 74 78 83 86 89 91 94 96 100 100 103 106 105 100 92 91 91 80 81 78 78
76 80 79 81 80 84 84 84 83 78 77 80 81 80 85 89 93 79 80 82 80 79
75 74 74 77 81 77 72 68 63 62 61 61 66 65 68 65 67 79 79 74 71 77
71 69 68 64 61 57 57 56 62 71 74 70 65 66 63 62 60 60 60 65 71 64
Wind_Direction_500mb
192 173 170 181 192 213 246 250 261 273 276 281 285 288 292 296 292 287 281 276 272 270
158 170 189 210 231 251 257 261 265 269 271 273 280 288 293 292 290 287 284 280 276 278
182 214 238 250 260 266 271 273 269 270 273 284 290 295 298 295 298 295 292 287 284 281
243 250 248 250 259 269 274 273 269 275 281 283 288 291 293 295 293 291 295 293 291 286
243 247 256 267 275 278 279 273 274 272 278 281 284 289 289 287 290 286 290 291 290 288
249 258 262 268 269 270 269 267 271 275 281 281 286 283 282 281 281 282 281 282 281 283
254 256 258 261 261 262 262 264 267 270 274 275 278 283 279 276 274 277 276 278 284 278
264 264 264 265 266 266 266 270 272 273 272 271 270 269 269 272 272 273 273 268 276 274
286 284 281 280 279 278 278 277 278 276 276 274 271 268 268 268 268 268 264 262 270 273
298 296 294 292 290 289 287 286 284 282 279 277 276 274 270 267 264 267 258 262 265 266
300 297 296 293 290 289 287 285 283 280 278 277 275 274 273 270 267 259 254 255 261 264
300 297 295 292 291 290 288 287 285 282 280 276 276 275 274 269 264 263 262 257 255 259
298 295 292 291 291 291 288 285 283 281 279 277 277 277 276 276 271 264 262 259 255 252
296 294 294 294 293 289 287 285 283 284 287 287 282 282 280 275 267 266 265 258 249 250
Wind_Speed_850mb
38 36 32 27 24 17 16 18 19 21 25 28 29 31 34 40 41 43 41 36 38 42
34 27 23 19 19 20 22 22 24 26 28 30 31 36 40 42 40 40 41 43 44 42
17 16 18 21 22 22 21 26 30 32 32 34 36 37 37 34 31 31 35 40 43 46
16 20 22 20 21 23 29 36 37 37 36 36 39 38 38 38 38 38 40 40 42 46
18 17 19 22 28 33 36 39 39 40 44 45 47 48 48 45 46 48 48 47 46 49
19 24 28 31 35 39 42 46 48 51 54 56 58 59 59 58 57 57 57 51 49 50
31 37 42 45 48 50 51 55 58 60 63 68 71 72 72 72 70 66 68 65 61 55
31 39 45 51 53 57 61 65 68 71 75 77 79 74 73 80 80 77 77 67 64 58
39 44 49 55 60 66 70 75 77 80 84 89 93 84 89 87 86 78 76 73 69 70
56 61 67 73 77 80 84 87 90 92 92 94 93 92 92 94 96 92 85 84 77 71
69 74 78 83 86 89 91 94 96 100 100 103 106 105 100 92 91 91 80 81 78 78
76 80 79 81 80 84 84 84 83 78 77 80 81 80 85 89 93 79 80 82 80 79
75 74 74 77 81 77 72 68 63 62 61 61 66 65 68 65 67 79 79 74 71 77
71 69 68 64 61 57 57 56 62 71 74 70 65 66 63 62 60 60 60 65 71 64
Wind_Direction_850mb
192 173 170 181 192 213 246 250 261 273 276 281 285 288 292 296 292 287 281 276 272 270
158 170 189 210 231 251 257 261 265 269 271 273 280 288 293 292 290 287 284 280 276 278
182 214 238 250 260 266 271 273 269 270 273 284 290 295 298 295 298 295 292 287 284 281
243 250 248 250 259 269 274 273 269 275 281 283 288 291 293 295 293 291 295 293 291 286
243 247 256 267 275 278 279 273 274 272 278 281 284 289 289 287 290 286 290 291 290 288
249 258 262 268 269 270 269 267 271 275 281 281 286 283 282 281 281 282 281 282 281 283
254 256 258 261 261 262 262 264 267 270 274 275 278 283 279 276 274 277 276 278 284 278
264 264 264 265 266 266 266 270 272 273 272 271 270 269 269 272 272 273 273 268 276 274
286 284 281 280 279 278 278 277 278 276 276 274 271 268 268 268 268 268 264 262 270 273
298 296 294 292 290 289 287 286 284 282 279 277 276 274 270 267 264 267 258 262 265 266
300 297 296 293 290 289 287 285 283 280 278 277 275 274 273 270 267 259 254 255 261 264
300 297 295 292 291 290 288 287 285 282 280 276 276 275 274 269 264 263 262 257 255 259
298 295 292 291 291 291 288 285 283 281 279 277 277 277 276 276 271 264 262 259 255 252
296 294 294 294 293 289 287 285 283 284 287 287 282 282 280 275 267 266 265 258 249 250